Location: Binningen
(47.7924°N, 8.7261°E)
Time: 16:59:03
(UTC+00:00)

Cosmos 1733 Rocket - Pass Details

Date: 08 October 2021
Orbit: 604 x 627 km, 82.5° (Epoch: 20 October)

Event Time Altitude Azimuth Distance (km) Brightness Sun altitude
Rises 03:24:15 0° 345° (NNW) 2,907 6.5 -22.4°
Reaches altitude 10° 03:26:33 10° 339° (NNW) 2,000 5.6 -22.0°
Enters shadow 03:28:24 23° 328° (NNW) 1,321 4.6 -21.7°
